Back to catalog

SDA_1668

AliveMilitaryPO
NORAD 65978·PAYLOAD·🇺🇸 United States

Launched Oct 15, 2025 from Vandenberg Space Force Base

Loading…

Next Passes (next 24 hours)

TLE

FreshSource: Space-Track

Epoch: Sep 13, 2026, 22:31 UTC

1 65978U 25230E   26256.93823844  .00000162  00000-0  13489-3 0  9996
2 65978  81.2991 129.2730 0002963 357.3977   2.7164 13.84244219 46101

Track SDA_1668 in real time with AllMySat

Download on the App Store